owner,sensor,date,latitude,longitude,vertical_datum,sea_water_temperature,qcFlag 
TCOON,ioos:station:TCOON:057:1,2009-11-13T16:00:00Z,28.4460,-96.3961,0.0,21.2,11111222 
TCOON,ioos:station:TCOON:057:1,2009-11-13T17:00:00Z,28.4460,-96.3961,0.0,21.6,11111222 
TCOON,ioos:station:TCOON:057:1,2009-11-13T18:00:00Z,28.4460,-96.3961,0.0,21.6,11111222 
TCOON,ioos:station:TCOON:057:1,2009-11-13T19:00:00Z,28.4460,-96.3961,0.0,21.7,11111222 
TCOON,ioos:station:TCOON:057:1,2009-11-13T20:00:00Z,28.4460,-96.3961,0.0,22.0,11111222 
TCOON,ioos:station:TCOON:057:1,2009-11-13T21:00:00Z,28.4460,-96.3961,0.0,22.2,11111222 
TCOON,ioos:station:TCOON:057:1,2009-11-13T22:00:00Z,28.4460,-96.3961,0.0,22.3,11111222 
TCOON,ioos:station:TCOON:057:1,2009-11-13T23:00:00Z,28.4460,-96.3961,0.0,22.3,11111222 
TCOON,ioos:station:TCOON:057:1,2009-11-14T00:00:00Z,28.4460,-96.3961,0.0,22.4,11111222 
TCOON,ioos:station:TCOON:057:1,2009-11-14T01:00:00Z,28.4460,-96.3961,0.0,22.6,11111222 
TCOON,ioos:station:TCOON:057:1,2009-11-14T02:00:00Z,28.4460,-96.3961,0.0,22.5,11111222 
TCOON,ioos:station:TCOON:057:1,2009-11-14T03:00:00Z,28.4460,-96.3961,0.0,22.4,11111222 
TCOON,ioos:station:TCOON:057:1,2009-11-14T04:00:00Z,28.4460,-96.3961,0.0,22.3,11111222 
TCOON,ioos:station:TCOON:057:1,2009-11-14T05:00:00Z,28.4460,-96.3961,0.0,22.2,11111222 
TCOON,ioos:station:TCOON:057:1,2009-11-14T06:00:00Z,28.4460,-96.3961,0.0,22.1,11111222 
TCOON,ioos:station:TCOON:057:1,2009-11-14T07:00:00Z,28.4460,-96.3961,0.0,22.0,11111222 
TCOON,ioos:station:TCOON:057:1,2009-11-14T08:00:00Z,28.4460,-96.3961,0.0,22.0,11111222 
TCOON,ioos:station:TCOON:057:1,2009-11-14T09:00:00Z,28.4460,-96.3961,0.0,22.0,11111222 
TCOON,ioos:station:TCOON:057:1,2009-11-14T10:00:00Z,28.4460,-96.3961,0.0,21.9,11111222 
TCOON,ioos:station:TCOON:057:1,2009-11-14T11:00:00Z,28.4460,-96.3961,0.0,21.9,11111222 
TCOON,ioos:station:TCOON:057:1,2009-11-14T12:00:00Z,28.4460,-96.3961,0.0,21.8,11111222 
TCOON,ioos:station:TCOON:057:1,2009-11-14T13:00:00Z,28.4460,-96.3961,0.0,21.7,11111222 
TCOON,ioos:station:TCOON:057:1,2009-11-14T14:00:00Z,28.4460,-96.3961,0.0,21.5,11111222 
TCOON,ioos:station:TCOON:057:1,2009-11-14T15:00:00Z,28.4460,-96.3961,0.0,21.5,11111222 
TCOON,ioos:station:TCOON:057:1,2009-11-14T16:00:00Z,28.4460,-96.3961,0.0,21.8,11111222 
TCOON,ioos:station:TCOON:057:1,2009-11-14T17:00:00Z,28.4460,-96.3961,0.0,22.0,11111222 
TCOON,ioos:station:TCOON:057:1,2009-11-14T19:00:00Z,28.4460,-96.3961,0.0,22.4,11111222 
TCOON,ioos:station:TCOON:057:1,2009-11-14T20:00:00Z,28.4460,-96.3961,0.0,22.5,11111222 
TCOON,ioos:station:TCOON:057:1,2009-11-14T21:00:00Z,28.4460,-96.3961,0.0,22.6,11111222 
TCOON,ioos:station:TCOON:057:1,2009-11-14T22:00:00Z,28.4460,-96.3961,0.0,22.5,11111222 
TCOON,ioos:station:TCOON:057:1,2009-11-14T23:00:00Z,28.4460,-96.3961,0.0,22.5,11111222 
TCOON,ioos:station:TCOON:057:1,2009-11-15T00:00:00Z,28.4460,-96.3961,0.0,22.6,11111222 
TCOON,ioos:station:TCOON:057:1,2009-11-15T01:00:00Z,28.4460,-96.3961,0.0,22.7,11111222 
TCOON,ioos:station:TCOON:057:1,2009-11-15T02:00:00Z,28.4460,-96.3961,0.0,23.0,11111222 
TCOON,ioos:station:TCOON:057:1,2009-11-15T03:00:00Z,28.4460,-96.3961,0.0,23.1,11111222 
TCOON,ioos:station:TCOON:057:1,2009-11-15T04:00:00Z,28.4460,-96.3961,0.0,23.0,11111222 
TCOON,ioos:station:TCOON:057:1,2009-11-15T05:00:00Z,28.4460,-96.3961,0.0,22.7,11111222 
TCOON,ioos:station:TCOON:057:1,2009-11-15T06:00:00Z,28.4460,-96.3961,0.0,22.5,11111222 
TCOON,ioos:station:TCOON:057:1,2009-11-15T07:00:00Z,28.4460,-96.3961,0.0,22.4,11111222 
TCOON,ioos:station:TCOON:057:1,2009-11-15T08:00:00Z,28.4460,-96.3961,0.0,22.4,11111222 
TCOON,ioos:station:TCOON:057:1,2009-11-15T09:00:00Z,28.4460,-96.3961,0.0,22.4,11111222 
TCOON,ioos:station:TCOON:057:1,2009-11-15T10:00:00Z,28.4460,-96.3961,0.0,22.4,11111222 
TCOON,ioos:station:TCOON:057:1,2009-11-15T11:00:00Z,28.4460,-96.3961,0.0,22.4,11111222 
TCOON,ioos:station:TCOON:057:1,2009-11-15T12:00:00Z,28.4460,-96.3961,0.0,22.3,11111222 
TCOON,ioos:station:TCOON:057:1,2009-11-15T13:00:00Z,28.4460,-96.3961,0.0,22.3,11111222 
TCOON,ioos:station:TCOON:057:1,2009-11-15T14:00:00Z,28.4460,-96.3961,0.0,22.3,11111222 
TCOON,ioos:station:TCOON:057:1,2009-11-15T15:00:00Z,28.4460,-96.3961,0.0,22.4,11111222 
TCOON,ioos:station:TCOON:057:1,2009-11-15T16:00:00Z,28.4460,-96.3961,0.0,22.5,11111222 
TCOON,ioos:station:TCOON:057:1,2009-11-15T17:00:00Z,28.4460,-96.3961,0.0,22.7,11111222 
TCOON,ioos:station:TCOON:057:1,2009-11-15T18:00:00Z,28.4460,-96.3961,0.0,22.9,11111222 
TCOON,ioos:station:TCOON:057:1,2009-11-15T19:00:00Z,28.4460,-96.3961,0.0,23.1,11111222 
TCOON,ioos:station:TCOON:057:1,2009-11-15T20:00:00Z,28.4460,-96.3961,0.0,23.2,11111222 
TCOON,ioos:station:TCOON:057:1,2009-11-15T21:00:00Z,28.4460,-96.3961,0.0,23.3,2 
TCOON,ioos:station:TCOON:057:1,2009-11-15T22:00:00Z,28.4460,-96.3961,0.0,23.4,2 
TCOON,ioos:station:TCOON:057:1,2009-11-15T23:00:00Z,28.4460,-96.3961,0.0,23.5,2 
TCOON,ioos:station:TCOON:057:1,2009-11-16T00:00:00Z,28.4460,-96.3961,0.0,23.5,2 
TCOON,ioos:station:TCOON:057:1,2009-11-16T01:00:00Z,28.4460,-96.3961,0.0,23.5,2 
TCOON,ioos:station:TCOON:057:1,2009-11-16T02:00:00Z,28.4460,-96.3961,0.0,23.6,2 
TCOON,ioos:station:TCOON:057:1,2009-11-16T03:00:00Z,28.4460,-96.3961,0.0,23.6,2 
TCOON,ioos:station:TCOON:057:1,2009-11-16T04:00:00Z,28.4460,-96.3961,0.0,23.4,2 
TCOON,ioos:station:TCOON:057:1,2009-11-16T05:00:00Z,28.4460,-96.3961,0.0,23.3,2 
TCOON,ioos:station:TCOON:057:1,2009-11-16T06:00:00Z,28.4460,-96.3961,0.0,23.2,2 
TCOON,ioos:station:TCOON:057:1,2009-11-16T07:00:00Z,28.4460,-96.3961,0.0,23.1,2 
TCOON,ioos:station:TCOON:057:1,2009-11-16T08:00:00Z,28.4460,-96.3961,0.0,23.0,2 
TCOON,ioos:station:TCOON:057:1,2009-11-16T09:00:00Z,28.4460,-96.3961,0.0,23.0,2 
TCOON,ioos:station:TCOON:057:1,2009-11-16T10:00:00Z,28.4460,-96.3961,0.0,23.0,2 
TCOON,ioos:station:TCOON:057:1,2009-11-16T11:00:00Z,28.4460,-96.3961,0.0,23.0,2 
TCOON,ioos:station:TCOON:057:1,2009-11-16T12:00:00Z,28.4460,-96.3961,0.0,23.0,2 
TCOON,ioos:station:TCOON:057:1,2009-11-16T13:00:00Z,28.4460,-96.3961,0.0,22.9,2 
TCOON,ioos:station:TCOON:057:1,2009-11-16T14:00:00Z,28.4460,-96.3961,0.0,22.2,2 
TCOON,ioos:station:TCOON:057:1,2009-11-16T15:00:00Z,28.4460,-96.3961,0.0,21.8,2 
TCOON,ioos:station:TCOON:057:1,2009-11-16T16:00:00Z,28.4460,-96.3961,0.0,21.4,2 
TCOON,ioos:station:TCOON:057:1,2009-11-16T18:00:00Z,28.4460,-96.3961,0.0,21.5,2 
TCOON,ioos:station:TCOON:057:1,2009-11-16T19:00:00Z,28.4460,-96.3961,0.0,21.5,11111222 
TCOON,ioos:station:TCOON:057:1,2009-11-16T20:00:00Z,28.4460,-96.3961,0.0,21.6,2 
TCOON,ioos:station:TCOON:057:1,2009-11-16T21:00:00Z,28.4460,-96.3961,0.0,21.4,2 
TCOON,ioos:station:TCOON:057:1,2009-11-16T22:00:00Z,28.4460,-96.3961,0.0,21.0,2 
TCOON,ioos:station:TCOON:057:1,2009-11-16T23:00:00Z,28.4460,-96.3961,0.0,20.5,2 
TCOON,ioos:station:TCOON:057:1,2009-11-17T00:00:00Z,28.4460,-96.3961,0.0,19.8,2 
TCOON,ioos:station:TCOON:057:1,2009-11-17T01:00:00Z,28.4460,-96.3961,0.0,19.2,2 
TCOON,ioos:station:TCOON:057:1,2009-11-17T02:00:00Z,28.4460,-96.3961,0.0,18.8,2 
TCOON,ioos:station:TCOON:057:1,2009-11-17T03:00:00Z,28.4460,-96.3961,0.0,18.2,2 
TCOON,ioos:station:TCOON:057:1,2009-11-17T04:00:00Z,28.4460,-96.3961,0.0,17.4,2 
TCOON,ioos:station:TCOON:057:1,2009-11-17T05:00:00Z,28.4460,-96.3961,0.0,16.9,2 
TCOON,ioos:station:TCOON:057:1,2009-11-17T06:00:00Z,28.4460,-96.3961,0.0,16.7,2 
TCOON,ioos:station:TCOON:057:1,2009-11-17T07:00:00Z,28.4460,-96.3961,0.0,16.0,2 
TCOON,ioos:station:TCOON:057:1,2009-11-17T08:00:00Z,28.4460,-96.3961,0.0,15.3,2 
TCOON,ioos:station:TCOON:057:1,2009-11-17T09:00:00Z,28.4460,-96.3961,0.0,16.2,2 
TCOON,ioos:station:TCOON:057:1,2009-11-17T10:00:00Z,28.4460,-96.3961,0.0,15.6,2 
TCOON,ioos:station:TCOON:057:1,2009-11-17T11:00:00Z,28.4460,-96.3961,0.0,15.2,2 
TCOON,ioos:station:TCOON:057:1,2009-11-17T12:00:00Z,28.4460,-96.3961,0.0,15.6,2 
TCOON,ioos:station:TCOON:057:1,2009-11-17T13:00:00Z,28.4460,-96.3961,0.0,14.3,2 
TCOON,ioos:station:TCOON:057:1,2009-11-17T14:00:00Z,28.4460,-96.3961,0.0,14.0,2 
TCOON,ioos:station:TCOON:057:1,2009-11-17T15:00:00Z,28.4460,-96.3961,0.0,14.0,2 
TCOON,ioos:station:TCOON:057:1,2009-11-17T16:00:00Z,28.4460,-96.3961,0.0,14.4,2 
TCOON,ioos:station:TCOON:057:1,2009-11-17T17:00:00Z,28.4460,-96.3961,0.0,15.0,2 
TCOON,ioos:station:TCOON:057:1,2009-11-17T18:00:00Z,28.4460,-96.3961,0.0,15.5,2 
TCOON,ioos:station:TCOON:057:1,2009-11-17T19:00:00Z,28.4460,-96.3961,0.0,16.4,2 
TCOON,ioos:station:TCOON:057:1,2009-11-17T20:00:00Z,28.4460,-96.3961,0.0,16.6,2 
TCOON,ioos:station:TCOON:057:1,2009-11-17T21:00:00Z,28.4460,-96.3961,0.0,17.3,2 
TCOON,ioos:station:TCOON:057:1,2009-11-17T22:00:00Z,28.4460,-96.3961,0.0,17.6,2 
TCOON,ioos:station:TCOON:057:1,2009-11-17T23:00:00Z,28.4460,-96.3961,0.0,17.4,2 
TCOON,ioos:station:TCOON:057:1,2009-11-18T00:00:00Z,28.4460,-96.3961,0.0,17.5,2 
TCOON,ioos:station:TCOON:057:1,2009-11-18T01:00:00Z,28.4460,-96.3961,0.0,17.5,2 
TCOON,ioos:station:TCOON:057:1,2009-11-18T02:00:00Z,28.4460,-96.3961,0.0,17.5,2 
TCOON,ioos:station:TCOON:057:1,2009-11-18T03:00:00Z,28.4460,-96.3961,0.0,17.6,2 
TCOON,ioos:station:TCOON:057:1,2009-11-18T04:00:00Z,28.4460,-96.3961,0.0,18.0,2 
TCOON,ioos:station:TCOON:057:1,2009-11-18T05:00:00Z,28.4460,-96.3961,0.0,18.2,2 
TCOON,ioos:station:TCOON:057:1,2009-11-18T06:00:00Z,28.4460,-96.3961,0.0,18.5,2 
TCOON,ioos:station:TCOON:057:1,2009-11-18T07:00:00Z,28.4460,-96.3961,0.0,18.2,2 
TCOON,ioos:station:TCOON:057:1,2009-11-18T08:00:00Z,28.4460,-96.3961,0.0,17.4,2 
TCOON,ioos:station:TCOON:057:1,2009-11-18T09:00:00Z,28.4460,-96.3961,0.0,17.1,2 
TCOON,ioos:station:TCOON:057:1,2009-11-18T10:00:00Z,28.4460,-96.3961,0.0,16.8,2 
TCOON,ioos:station:TCOON:057:1,2009-11-18T11:00:00Z,28.4460,-96.3961,0.0,16.9,2 
TCOON,ioos:station:TCOON:057:1,2009-11-18T12:00:00Z,28.4460,-96.3961,0.0,16.6,2 
TCOON,ioos:station:TCOON:057:1,2009-11-18T13:00:00Z,28.4460,-96.3961,0.0,16.5,2 
TCOON,ioos:station:TCOON:057:1,2009-11-18T14:00:00Z,28.4460,-96.3961,0.0,16.1,2 
TCOON,ioos:station:TCOON:057:1,2009-11-18T15:00:00Z,28.4460,-96.3961,0.0,15.7,2 
TCOON,ioos:station:TCOON:057:1,2009-11-18T16:00:00Z,28.4460,-96.3961,0.0,15.8,2 
TCOON,ioos:station:TCOON:057:1,2009-11-18T17:00:00Z,28.4460,-96.3961,0.0,16.3,2 
TCOON,ioos:station:TCOON:057:1,2009-11-18T18:00:00Z,28.4460,-96.3961,0.0,17.3,2 
TCOON,ioos:station:TCOON:057:1,2009-11-18T19:00:00Z,28.4460,-96.3961,0.0,18.4,2 
TCOON,ioos:station:TCOON:057:1,2009-11-18T20:00:00Z,28.4460,-96.3961,0.0,19.3,2 
TCOON,ioos:station:TCOON:057:1,2009-11-18T21:00:00Z,28.4460,-96.3961,0.0,19.6,2 
TCOON,ioos:station:TCOON:057:1,2009-11-18T22:00:00Z,28.4460,-96.3961,0.0,19.8,2 
TCOON,ioos:station:TCOON:057:1,2009-11-18T23:00:00Z,28.4460,-96.3961,0.0,19.7,2 
TCOON,ioos:station:TCOON:057:1,2009-11-19T00:00:00Z,28.4460,-96.3961,0.0,19.5,2 
TCOON,ioos:station:TCOON:057:1,2009-11-19T01:00:00Z,28.4460,-96.3961,0.0,19.3,2 
TCOON,ioos:station:TCOON:057:1,2009-11-19T02:00:00Z,28.4460,-96.3961,0.0,19.3,2 
TCOON,ioos:station:TCOON:057:1,2009-11-19T03:00:00Z,28.4460,-96.3961,0.0,19.3,2 
TCOON,ioos:station:TCOON:057:1,2009-11-19T04:00:00Z,28.4460,-96.3961,0.0,19.3,2 
TCOON,ioos:station:TCOON:057:1,2009-11-19T05:00:00Z,28.4460,-96.3961,0.0,19.4,2 
TCOON,ioos:station:TCOON:057:1,2009-11-19T06:00:00Z,28.4460,-96.3961,0.0,19.4,2 
TCOON,ioos:station:TCOON:057:1,2009-11-19T07:00:00Z,28.4460,-96.3961,0.0,19.4,2 
TCOON,ioos:station:TCOON:057:1,2009-11-19T08:00:00Z,28.4460,-96.3961,0.0,19.2,2 
TCOON,ioos:station:TCOON:057:1,2009-11-19T09:00:00Z,28.4460,-96.3961,0.0,19.2,2 
TCOON,ioos:station:TCOON:057:1,2009-11-19T11:00:00Z,28.4460,-96.3961,0.0,19.5,2 
TCOON,ioos:station:TCOON:057:1,2009-11-19T12:00:00Z,28.4460,-96.3961,0.0,19.3,2 
TCOON,ioos:station:TCOON:057:1,2009-11-19T14:00:00Z,28.4460,-96.3961,0.0,19.1,2 
TCOON,ioos:station:TCOON:057:1,2009-11-19T15:00:00Z,28.4460,-96.3961,0.0,18.9,2 
TCOON,ioos:station:TCOON:057:1,2009-11-19T16:00:00Z,28.4460,-96.3961,0.0,19.0,2 
TCOON,ioos:station:TCOON:057:1,2009-11-19T17:00:00Z,28.4460,-96.3961,0.0,19.7,2 
TCOON,ioos:station:TCOON:057:1,2009-11-19T18:00:00Z,28.4460,-96.3961,0.0,20.1,2 
TCOON,ioos:station:TCOON:057:1,2009-11-19T19:00:00Z,28.4460,-96.3961,0.0,20.4,2 
TCOON,ioos:station:TCOON:057:1,2009-11-19T20:00:00Z,28.4460,-96.3961,0.0,20.6,2 
TCOON,ioos:station:TCOON:057:1,2009-11-19T21:00:00Z,28.4460,-96.3961,0.0,21.0,2 
TCOON,ioos:station:TCOON:057:1,2009-11-19T22:00:00Z,28.4460,-96.3961,0.0,20.9,2 
TCOON,ioos:station:TCOON:057:1,2009-11-19T23:00:00Z,28.4460,-96.3961,0.0,20.9,2 
TCOON,ioos:station:TCOON:057:1,2009-11-20T00:00:00Z,28.4460,-96.3961,0.0,21.0,2 
TCOON,ioos:station:TCOON:057:1,2009-11-20T01:00:00Z,28.4460,-96.3961,0.0,21.2,2 
TCOON,ioos:station:TCOON:057:1,2009-11-20T02:00:00Z,28.4460,-96.3961,0.0,21.6,2 
TCOON,ioos:station:TCOON:057:1,2009-11-20T03:00:00Z,28.4460,-96.3961,0.0,21.7,2 
TCOON,ioos:station:TCOON:057:1,2009-11-20T04:00:00Z,28.4460,-96.3961,0.0,21.9,2 
TCOON,ioos:station:TCOON:057:1,2009-11-20T05:00:00Z,28.4460,-96.3961,0.0,21.1,2 
TCOON,ioos:station:TCOON:057:1,2009-11-20T06:00:00Z,28.4460,-96.3961,0.0,21.1,2 
TCOON,ioos:station:TCOON:057:1,2009-11-20T07:00:00Z,28.4460,-96.3961,0.0,21.0,2 
TCOON,ioos:station:TCOON:057:1,2009-11-20T08:00:00Z,28.4460,-96.3961,0.0,20.9,2 
TCOON,ioos:station:TCOON:057:1,2009-11-20T09:00:00Z,28.4460,-96.3961,0.0,20.8,2 
TCOON,ioos:station:TCOON:057:1,2009-11-20T10:00:00Z,28.4460,-96.3961,0.0,21.0,2 
TCOON,ioos:station:TCOON:057:1,2009-11-20T11:00:00Z,28.4460,-96.3961,0.0,21.1,2 
TCOON,ioos:station:TCOON:057:1,2009-11-20T12:00:00Z,28.4460,-96.3961,0.0,21.2,2 
TCOON,ioos:station:TCOON:057:1,2009-11-20T13:00:00Z,28.4460,-96.3961,0.0,21.1,2 
TCOON,ioos:station:TCOON:057:1,2009-11-20T14:00:00Z,28.4460,-96.3961,0.0,21.0,2 
TCOON,ioos:station:TCOON:057:1,2009-11-20T15:00:00Z,28.4460,-96.3961,0.0,20.9,2 
TCOON,ioos:station:TCOON:057:1,2009-11-20T16:00:00Z,28.4460,-96.3961,0.0,20.9,2 
TCOON,ioos:station:TCOON:057:1,2009-11-20T17:00:00Z,28.4460,-96.3961,0.0,20.9,2 
TCOON,ioos:station:TCOON:057:1,2009-11-20T18:00:00Z,28.4460,-96.3961,0.0,20.9,2 
TCOON,ioos:station:TCOON:057:1,2009-11-20T19:00:00Z,28.4460,-96.3961,0.0,20.9,2 
TCOON,ioos:station:TCOON:057:1,2009-11-20T20:00:00Z,28.4460,-96.3961,0.0,20.9,2 
TCOON,ioos:station:TCOON:057:1,2009-11-20T21:00:00Z,28.4460,-96.3961,0.0,21.0,2 
TCOON,ioos:station:TCOON:057:1,2009-11-20T22:00:00Z,28.4460,-96.3961,0.0,20.8,2 
TCOON,ioos:station:TCOON:057:1,2009-11-21T00:00:00Z,28.4460,-96.3961,0.0,20.8,2 
TCOON,ioos:station:TCOON:057:1,2009-11-21T01:00:00Z,28.4460,-96.3961,0.0,20.7,2 
TCOON,ioos:station:TCOON:057:1,2009-11-21T02:00:00Z,28.4460,-96.3961,0.0,20.6,2 
TCOON,ioos:station:TCOON:057:1,2009-11-21T03:00:00Z,28.4460,-96.3961,0.0,20.5,2 
TCOON,ioos:station:TCOON:057:1,2009-11-21T04:00:00Z,28.4460,-96.3961,0.0,20.1,2 
TCOON,ioos:station:TCOON:057:1,2009-11-21T05:00:00Z,28.4460,-96.3961,0.0,20.0,2 
TCOON,ioos:station:TCOON:057:1,2009-11-21T06:00:00Z,28.4460,-96.3961,0.0,20.1,2 
TCOON,ioos:station:TCOON:057:1,2009-11-21T07:00:00Z,28.4460,-96.3961,0.0,20.1,2 
TCOON,ioos:station:TCOON:057:1,2009-11-21T08:00:00Z,28.4460,-96.3961,0.0,19.7,2 
TCOON,ioos:station:TCOON:057:1,2009-11-21T09:00:00Z,28.4460,-96.3961,0.0,19.6,2 
TCOON,ioos:station:TCOON:057:1,2009-11-21T10:00:00Z,28.4460,-96.3961,0.0,19.3,2 
TCOON,ioos:station:TCOON:057:1,2009-11-21T11:00:00Z,28.4460,-96.3961,0.0,19.1,2 
TCOON,ioos:station:TCOON:057:1,2009-11-21T12:00:00Z,28.4460,-96.3961,0.0,18.9,2 
TCOON,ioos:station:TCOON:057:1,2009-11-21T13:00:00Z,28.4460,-96.3961,0.0,18.8,2 
TCOON,ioos:station:TCOON:057:1,2009-11-21T14:00:00Z,28.4460,-96.3961,0.0,18.7,2 
TCOON,ioos:station:TCOON:057:1,2009-11-21T15:00:00Z,28.4460,-96.3961,0.0,18.4,2 
TCOON,ioos:station:TCOON:057:1,2009-11-21T16:00:00Z,28.4460,-96.3961,0.0,18.3,2 
TCOON,ioos:station:TCOON:057:1,2009-11-21T17:00:00Z,28.4460,-96.3961,0.0,18.2,2 
TCOON,ioos:station:TCOON:057:1,2009-11-21T18:00:00Z,28.4460,-96.3961,0.0,18.2,2 
TCOON,ioos:station:TCOON:057:1,2009-11-21T19:00:00Z,28.4460,-96.3961,0.0,18.3,2 
TCOON,ioos:station:TCOON:057:1,2009-11-21T20:00:00Z,28.4460,-96.3961,0.0,18.3,2 
TCOON,ioos:station:TCOON:057:1,2009-11-21T21:00:00Z,28.4460,-96.3961,0.0,19.0,2 
TCOON,ioos:station:TCOON:057:1,2009-11-21T22:00:00Z,28.4460,-96.3961,0.0,19.4,2 
TCOON,ioos:station:TCOON:057:1,2009-11-21T23:00:00Z,28.4460,-96.3961,0.0,19.5,2 
TCOON,ioos:station:TCOON:057:1,2009-11-22T00:00:00Z,28.4460,-96.3961,0.0,19.5,2 
TCOON,ioos:station:TCOON:057:1,2009-11-22T01:00:00Z,28.4460,-96.3961,0.0,19.2,2 
TCOON,ioos:station:TCOON:057:1,2009-11-22T02:00:00Z,28.4460,-96.3961,0.0,19.3,2 
TCOON,ioos:station:TCOON:057:1,2009-11-22T03:00:00Z,28.4460,-96.3961,0.0,19.3,2 
TCOON,ioos:station:TCOON:057:1,2009-11-22T04:00:00Z,28.4460,-96.3961,0.0,19.3,2 
TCOON,ioos:station:TCOON:057:1,2009-11-22T05:00:00Z,28.4460,-96.3961,0.0,19.2,2 
TCOON,ioos:station:TCOON:057:1,2009-11-22T06:00:00Z,28.4460,-96.3961,0.0,19.3,2 
TCOON,ioos:station:TCOON:057:1,2009-11-22T07:00:00Z,28.4460,-96.3961,0.0,18.7,2 
TCOON,ioos:station:TCOON:057:1,2009-11-22T08:00:00Z,28.4460,-96.3961,0.0,18.3,2 
TCOON,ioos:station:TCOON:057:1,2009-11-22T09:00:00Z,28.4460,-96.3961,0.0,18.0,2 
TCOON,ioos:station:TCOON:057:1,2009-11-22T10:00:00Z,28.4460,-96.3961,0.0,17.6,2 
TCOON,ioos:station:TCOON:057:1,2009-11-22T11:00:00Z,28.4460,-96.3961,0.0,17.5,2 
TCOON,ioos:station:TCOON:057:1,2009-11-22T12:00:00Z,28.4460,-96.3961,0.0,17.5,2 
TCOON,ioos:station:TCOON:057:1,2009-11-22T13:00:00Z,28.4460,-96.3961,0.0,17.5,2 
TCOON,ioos:station:TCOON:057:1,2009-11-22T14:00:00Z,28.4460,-96.3961,0.0,17.5,2 
TCOON,ioos:station:TCOON:057:1,2009-11-22T15:00:00Z,28.4460,-96.3961,0.0,17.3,2 
TCOON,ioos:station:TCOON:057:1,2009-11-22T16:00:00Z,28.4460,-96.3961,0.0,17.4,2 
TCOON,ioos:station:TCOON:057:1,2009-11-22T17:00:00Z,28.4460,-96.3961,0.0,18.1,2 
TCOON,ioos:station:TCOON:057:1,2009-11-22T18:00:00Z,28.4460,-96.3961,0.0,18.3,2 
TCOON,ioos:station:TCOON:057:1,2009-11-22T19:00:00Z,28.4460,-96.3961,0.0,18.7,2 
TCOON,ioos:station:TCOON:057:1,2009-11-22T20:00:00Z,28.4460,-96.3961,0.0,19.1,2 
TCOON,ioos:station:TCOON:057:1,2009-11-22T21:00:00Z,28.4460,-96.3961,0.0,19.2,2 
TCOON,ioos:station:TCOON:057:1,2009-11-22T22:00:00Z,28.4460,-96.3961,0.0,19.4,2 
TCOON,ioos:station:TCOON:057:1,2009-11-22T23:00:00Z,28.4460,-96.3961,0.0,19.4,2 
TCOON,ioos:station:TCOON:057:1,2009-11-23T00:00:00Z,28.4460,-96.3961,0.0,19.4,2 
TCOON,ioos:station:TCOON:057:1,2009-11-23T01:00:00Z,28.4460,-96.3961,0.0,19.3,2 
TCOON,ioos:station:TCOON:057:1,2009-11-23T02:00:00Z,28.4460,-96.3961,0.0,19.1,2 
TCOON,ioos:station:TCOON:057:1,2009-11-23T03:00:00Z,28.4460,-96.3961,0.0,19.0,2 
TCOON,ioos:station:TCOON:057:1,2009-11-23T04:00:00Z,28.4460,-96.3961,0.0,19.0,2 
TCOON,ioos:station:TCOON:057:1,2009-11-23T05:00:00Z,28.4460,-96.3961,0.0,19.4,2 
TCOON,ioos:station:TCOON:057:1,2009-11-23T06:00:00Z,28.4460,-96.3961,0.0,19.4,2 
TCOON,ioos:station:TCOON:057:1,2009-11-23T07:00:00Z,28.4460,-96.3961,0.0,19.4,2 
TCOON,ioos:station:TCOON:057:1,2009-11-23T08:00:00Z,28.4460,-96.3961,0.0,19.4,2 
TCOON,ioos:station:TCOON:057:1,2009-11-23T09:00:00Z,28.4460,-96.3961,0.0,19.3,2 
TCOON,ioos:station:TCOON:057:1,2009-11-23T10:00:00Z,28.4460,-96.3961,0.0,19.2,2 
TCOON,ioos:station:TCOON:057:1,2009-11-23T11:00:00Z,28.4460,-96.3961,0.0,19.2,2 
TCOON,ioos:station:TCOON:057:1,2009-11-23T12:00:00Z,28.4460,-96.3961,0.0,18.3,2 
TCOON,ioos:station:TCOON:057:1,2009-11-23T13:00:00Z,28.4460,-96.3961,0.0,18.0,2 
TCOON,ioos:station:TCOON:057:1,2009-11-23T14:00:00Z,28.4460,-96.3961,0.0,18.1,2 
TCOON,ioos:station:TCOON:057:1,2009-11-23T15:00:00Z,28.4460,-96.3961,0.0,18.1,2 
TCOON,ioos:station:TCOON:057:1,2009-11-23T16:00:00Z,28.4460,-96.3961,0.0,18.3,2 
TCOON,ioos:station:TCOON:057:1,2009-11-23T17:00:00Z,28.4460,-96.3961,0.0,18.6,2 
TCOON,ioos:station:TCOON:057:1,2009-11-23T18:00:00Z,28.4460,-96.3961,0.0,18.9,2 
TCOON,ioos:station:TCOON:057:1,2009-11-23T19:00:00Z,28.4460,-96.3961,0.0,19.1,2 
TCOON,ioos:station:TCOON:057:1,2009-11-23T20:00:00Z,28.4460,-96.3961,0.0,19.3,2 
TCOON,ioos:station:TCOON:057:1,2009-11-23T21:00:00Z,28.4460,-96.3961,0.0,19.6,2 
TCOON,ioos:station:TCOON:057:1,2009-11-23T22:00:00Z,28.4460,-96.3961,0.0,19.9,2 
TCOON,ioos:station:TCOON:057:1,2009-11-23T23:00:00Z,28.4460,-96.3961,0.0,19.6,2 
TCOON,ioos:station:TCOON:057:1,2009-11-24T00:00:00Z,28.4460,-96.3961,0.0,19.5,2 
TCOON,ioos:station:TCOON:057:1,2009-11-24T01:00:00Z,28.4460,-96.3961,0.0,19.5,2 
TCOON,ioos:station:TCOON:057:1,2009-11-24T02:00:00Z,28.4460,-96.3961,0.0,19.6,2 
TCOON,ioos:station:TCOON:057:1,2009-11-24T04:00:00Z,28.4460,-96.3961,0.0,19.6,2 
TCOON,ioos:station:TCOON:057:1,2009-11-24T05:00:00Z,28.4460,-96.3961,0.0,19.6,2 
TCOON,ioos:station:TCOON:057:1,2009-11-24T06:00:00Z,28.4460,-96.3961,0.0,19.8,2 
TCOON,ioos:station:TCOON:057:1,2009-11-24T07:00:00Z,28.4460,-96.3961,0.0,20.0,2 
TCOON,ioos:station:TCOON:057:1,2009-11-24T08:00:00Z,28.4460,-96.3961,0.0,20.0,2 
TCOON,ioos:station:TCOON:057:1,2009-11-24T09:00:00Z,28.4460,-96.3961,0.0,20.0,2 
TCOON,ioos:station:TCOON:057:1,2009-11-24T10:00:00Z,28.4460,-96.3961,0.0,20.0,2 
TCOON,ioos:station:TCOON:057:1,2009-11-24T11:00:00Z,28.4460,-96.3961,0.0,20.1,2 
TCOON,ioos:station:TCOON:057:1,2009-11-24T12:00:00Z,28.4460,-96.3961,0.0,19.7,2 
TCOON,ioos:station:TCOON:057:1,2009-11-24T13:00:00Z,28.4460,-96.3961,0.0,19.7,2 
TCOON,ioos:station:TCOON:057:1,2009-11-24T14:00:00Z,28.4460,-96.3961,0.0,19.7,2 
TCOON,ioos:station:TCOON:057:1,2009-11-24T15:00:00Z,28.4460,-96.3961,0.0,19.8,2 
TCOON,ioos:station:TCOON:057:1,2009-11-24T16:00:00Z,28.4460,-96.3961,0.0,19.7,2 
TCOON,ioos:station:TCOON:057:1,2009-11-24T17:00:00Z,28.4460,-96.3961,0.0,19.7,2 
TCOON,ioos:station:TCOON:057:1,2009-11-24T18:00:00Z,28.4460,-96.3961,0.0,19.7,2 
TCOON,ioos:station:TCOON:057:1,2009-11-24T19:00:00Z,28.4460,-96.3961,0.0,19.4,2 
TCOON,ioos:station:TCOON:057:1,2009-11-24T20:00:00Z,28.4460,-96.3961,0.0,19.1,2 
TCOON,ioos:station:TCOON:057:1,2009-11-24T21:00:00Z,28.4460,-96.3961,0.0,19.0,2 
TCOON,ioos:station:TCOON:057:1,2009-11-24T22:00:00Z,28.4460,-96.3961,0.0,18.8,2 
TCOON,ioos:station:TCOON:057:1,2009-11-24T23:00:00Z,28.4460,-96.3961,0.0,18.7,2 
TCOON,ioos:station:TCOON:057:1,2009-11-25T00:00:00Z,28.4460,-96.3961,0.0,18.3,2 
TCOON,ioos:station:TCOON:057:1,2009-11-25T01:00:00Z,28.4460,-96.3961,0.0,18.0,2 
TCOON,ioos:station:TCOON:057:1,2009-11-25T02:00:00Z,28.4460,-96.3961,0.0,17.8,2 
TCOON,ioos:station:TCOON:057:1,2009-11-25T03:00:00Z,28.4460,-96.3961,0.0,17.3,2 
TCOON,ioos:station:TCOON:057:1,2009-11-25T04:00:00Z,28.4460,-96.3961,0.0,17.5,2 
TCOON,ioos:station:TCOON:057:1,2009-11-25T05:00:00Z,28.4460,-96.3961,0.0,17.0,2 
TCOON,ioos:station:TCOON:057:1,2009-11-25T06:00:00Z,28.4460,-96.3961,0.0,16.7,2 
TCOON,ioos:station:TCOON:057:1,2009-11-25T07:00:00Z,28.4460,-96.3961,0.0,16.3,2 
TCOON,ioos:station:TCOON:057:1,2009-11-25T08:00:00Z,28.4460,-96.3961,0.0,16.1,2 
TCOON,ioos:station:TCOON:057:1,2009-11-25T09:00:00Z,28.4460,-96.3961,0.0,15.9,2 
TCOON,ioos:station:TCOON:057:1,2009-11-25T10:00:00Z,28.4460,-96.3961,0.0,15.5,2 
TCOON,ioos:station:TCOON:057:1,2009-11-25T11:00:00Z,28.4460,-96.3961,0.0,15.1,2 
TCOON,ioos:station:TCOON:057:1,2009-11-25T12:00:00Z,28.4460,-96.3961,0.0,15.1,2 
TCOON,ioos:station:TCOON:057:1,2009-11-25T13:00:00Z,28.4460,-96.3961,0.0,14.8,2 
TCOON,ioos:station:TCOON:057:1,2009-11-25T14:00:00Z,28.4460,-96.3961,0.0,14.7,2 
TCOON,ioos:station:TCOON:057:1,2009-11-25T15:00:00Z,28.4460,-96.3961,0.0,14.5,2 
TCOON,ioos:station:TCOON:057:1,2009-11-25T16:00:00Z,28.4460,-96.3961,0.0,14.8,2 
TCOON,ioos:station:TCOON:057:1,2009-11-25T17:00:00Z,28.4460,-96.3961,0.0,16.7,2 
TCOON,ioos:station:TCOON:057:1,2009-11-25T18:00:00Z,28.4460,-96.3961,0.0,15.2,2 
TCOON,ioos:station:TCOON:057:1,2009-11-25T19:00:00Z,28.4460,-96.3961,0.0,15.9,2 
TCOON,ioos:station:TCOON:057:1,2009-11-25T20:00:00Z,28.4460,-96.3961,0.0,17.9,2 
TCOON,ioos:station:TCOON:057:1,2009-11-25T21:00:00Z,28.4460,-96.3961,0.0,18.6,2 
TCOON,ioos:station:TCOON:057:1,2009-11-25T22:00:00Z,28.4460,-96.3961,0.0,18.4,2 
TCOON,ioos:station:TCOON:057:1,2009-11-25T23:00:00Z,28.4460,-96.3961,0.0,18.5,2 